Theta_e
302 304 304 303 302 293 293 296 293 296 297 296 292 293 291 291 287 285 289 292 293 296 298 303 304 305 307 312 315 316 316 317 318 318 320 322 324 326 328 329 329 331 332 333 333 333 334 335 336 337 338 340 342 343 343 343 344 345 345 347 348 349 349
300 302 305 303 304 299 294 292 296 296 300 298 294 286 287 288 283 284 289 290 288 292 291 301 303 303 305 308 312 315 316 317 316 317 318 320 322 325 327 329 330 331 332 333 333 333 334 335 336 337 338 340 341 343 343 343 344 344 345 346 347 348 348
299 300 302 299 302 301 300 297 299 298 287 289 288 288 285 283 282 282 283 287 291 292 293 298 302 303 304 306 310 312 314 315 316 317 318 319 321 323 325 326 328 329 330 332 333 333 334 335 337 337 338 339 340 342 343 343 343 344 345 346 347 349 349
298 299 299 293 296 299 301 297 297 298 294 292 288 290 285 288 282 284 282 288 289 294 295 297 301 304 306 306 307 310 313 315 317 318 319 319 320 321 323 325 327 328 330 331 332 333 333 334 335 336 337 338 339 341 343 343 344 345 346 346 347 347 349
297 292 295 296 297 295 296 295 294 293 296 294 296 292 292 288 283 282 283 284 289 295 297 301 302 304 307 308 308 310 312 315 316 318 319 320 321 321 322 324 325 327 329 331 332 333 334 334 335 336 337 337 338 340 341 343 343 343 344 345 346 347 348
291 291 298 300 300 300 298 297 295 295 292 290 288 286 292 289 288 283 281 286 290 292 301 304 303 305 306 308 309 310 312 314 316 318 319 320 320 322 323 323 325 326 328 330 332 333 334 334 334 335 336 337 337 339 341 342 343 343 343 344 345 347 348
292 295 299 303 303 302 301 299 297 298 293 290 288 284 287 290 290 291 289 286 292 297 302 304 305 305 305 307 309 310 312 313 315 317 318 320 321 322 323 324 324 325 327 329 331 332 333 333 334 335 336 337 337 338 340 342 342 343 344 344 346 347 347
295 297 297 298 299 299 298 298 299 297 295 296 295 294 289 289 288 290 288 288 289 295 303 305 305 305 305 305 307 310 311 312 314 315 317 318 320 322 323 324 324 325 327 328 330 331 332 333 334 334 336 337 338 338 339 341 342 343 344 345 345 346 346
290 292 294 294 296 298 295 295 298 298 298 297 297 294 290 291 289 291 287 287 290 297 305 305 305 303 304 306 305 308 310 311 312 314 316 318 320 321 322 323 324 325 325 326 328 330 331 333 334 335 335 336 337 338 339 340 342 344 344 345 345 346 346
283 283 284 285 288 292 292 295 297 299 298 296 294 292 291 289 290 291 288 288 287 294 299 303 304 304 304 304 304 307 308 311 312 313 315 317 318 320 321 323 323 324 325 327 328 329 331 332 333 335 336 336 337 338 339 341 341 343 344 345 346 346 346
287 288 290 293 298 294 291 294 296 296 298 299 298 296 291 290 287 290 291 293 292 296 300 300 302 303 303 305 303 304 307 309 311 313 315 316 318 320 321 322 323 325 326 326 327 329 330 331 333 334 335 336 337 338 339 341 342 343 345 345 346 346 346
294 295 294 296 297 294 295 294 295 296 297 298 297 294 293 294 290 290 294 293 294 295 297 298 300 301 301 301 301 301 302 305 308 311 313 323 318 319 321 323 323 324 325 327 327 328 329 330 332 334 335 336 337 338 339 340 342 343 344 346 346 346 346
294 295 295 296 296 296 296 297 296 296 296 297 296 296 295 296 295 293 295 294 295 296 296 298 300 301 304 303 304 303 303 303 306 310 311 311 314 317 318 321 323 324 324 326 327 328 329 330 331 332 334 335 337 338 340 341 341 342 345 345 346 346 346
292 294 295 296 295 295 295 295 296 297 297 296 297 297 298 297 297 297 298 295 297 298 299 298 300 301 302 303 306 307 308 305 307 308 308 310 312 314 316 319 322 324 325 326 327 328 329 330 331 331 333 335 336 337 338 340 341 343 344 345 346 346 346
290 293 296 295 295 294 293 295 296 297 297 297 298 298 298 298 297 297 296 296 296 299 300 302 303 303 301 304 305 304 305 305 306 307 308 310 311 312 315 318 321 324 325 326 327 328 329 330 331 332 333 334 336 337 338 339 341 342 344 344 345 346 346
287 292 293 294 294 294 294 294 296 296 295 294 296 296 297 296 295 296 296 295 295 298 300 301 302 302 302 302 303 303 304 306 308 309 310 310 311 312 313 316 319 322 324 325 326 327 328 330 331 332 333 334 335 336 338 339 340 342 343 344 345 346 347
284 291 292 292 292 293 292 294 297 298 297 297 297 297 300 301 300 297 295 296 300 301 303 301 303 302 302 302 301 303 303 306 309 311 312 312 313 313 315 316 320 320 323 325 327 327 328 330 331 333 334 334 335 337 338 340 341 342 342 343 345 346 347
285 290 291 292 289 284 288 298 300 300 298 298 296 297 297 298 300 300 302 302 303 301 301 301 302 303 303 305 305 305 306 306 306 308 312 313 314 314 315 317 319 322 324 326 327 328 329 331 332 334 336 335 336 338 339 341 341 342 343 343 345 345 347
284 288 290 287 283 286 298 299 304 308 307 301 299 300 299 299 299 300 299 299 300 301 302 303 305 306 306 308 308 306 304 306 306 307 308 309 313 316 317 317 319 322 324 326 327 328 328 330 332 334 335 337 338 339 340 340 342 342 343 344 344 345 346
288 286 285 281 283 293 297 298 306 311 306 307 302 298 299 300 299 299 299 300 301 301 301 302 304 304 305 312 315 314 315 308 309 308 309 312 314 317 319 319 319 322 323 325 326 327 331 331 332 334 335 337 337 338 340 341 341 343 343 344 344 345 346
282 284 284 286 293 292 295 301 304 305 302 303 302 296 299 300 303 299 299 300 300 301 300 301 304 310 313 313 316 316 317 319 314 311 312 312 313 315 319 321 320 323 326 326 327 332 334 331 332 333 335 337 338 339 340 340 342 342 343 344 344 346 346
289 283 282 283 284 283 289 302 308 310 311 310 308 303 299 304 306 305 301 300 301 301 303 304 305 310 309 306 310 314 318 320 324 329 326 328 326 319 317 320 324 325 325 326 329 329 330 331 332 334 336 338 339 339 340 341 342 342 343 344 345 346 347
288 285 281 281 282 287 293 301 307 309 311 311 310 301 296 301 307 311 305 301 301 303 305 302 308 308 304 302 308 314 317 324 328 329 331 331 332 335 335 326 322 325 329 328 329 331 330 329 332 335 336 338 338 339 340 341 342 342 343 344 346 346 348
288 286 284 282 288 290 299 306 308 310 312 312 303 292 291 302 309 311 312 308 303 304 305 307 309 307 301 303 309 315 323 327 333 332 332 332 334 336 338 338 335 330 334 333 330 329 329 332 334 336 336 338 339 339 339 341 341 341 343 345 347 348 349
288 290 285 287 290 298 306 307 310 312 313 303 294 290 293 307 309 312 312 314 314 309 307 310 308 307 307 310 319 333 333 332 331 332 333 334 335 336 338 337 336 332 331 330 330 332 335 337 336 336 336 337 338 339 340 340 340 342 344 346 347 348 349
286 287 285 286 291 297 307 311 311 313 307 294 292 302 310 310 311 312 313 316 317 313 309 310 309 316 325 333 332 331 331 330 329 330 332 334 336 337 338 339 336 335 335 335 336 337 337 338 338 337 336 336 337 338 339 339 341 344 345 345 346 347 348
292 292 288 287 283 295 311 310 309 311 302 301 309 310 312 313 312 315 319 322 321 319 318 323 326 330 330 330 329 329 329 329 328 329 331 332 333 333 334 334 335 336 335 335 335 335 337 338 337 338 339 336 337 338 338 340 345 349 347 346 347 347 347
288 290 287 287 295 303 311 308 301 308 311 313 313 312 309 313 313 313 313 322 325 327 326 328 328 328 327 327 327 327 327 328 329 329 331 333 334 334 334 335 335 335 334 335 336 336 337 339 339 338 339 339 337 336 338 344 346 348 347 346 346 346 346
297 294 297 303 308 311 313 312 311 313 315 316 315 314 312 312 313 315 314 318 324 327 328 328 327 326 328 327 328 327 327 327 328 329 330 331 332 333 332 333 335 335 334 334 335 335 336 338 339 339 339 339 339 338 339 341 343 345 344 345 345 345 345
305 307 310 311 312 311 312 315 316 314 314 315 315 314 312 314 315 316 315 316 323 326 326 326 326 327 327 327 328 328 328 328 329 330 330 330 331 331 331 331 333 334 335 335 334 333 333 335 337 338 339 339 338 338 341 342 345 346 344 344 344 345 345
297 293 309 309 309 312 312 312 314 315 315 315 316 314 314 314 315 316 318 317 322 327 328 327 327 327 328 327 327 328 328 328 328 328 328 329 329 328 328 330 331 330 331 331 331 332 331 332 334 335 336 338 338 339 340 341 345 348 346 344 343 344 345
294 297 307 310 312 312 313 312 312 313 314 316 317 317 316 315 316 317 318 319 321 325 326 327 327 327 328 328 327 328 328 328 328 327 327 327 328 329 329 330 330 330 329 328 329 329 329 329 331 333 334 335 336 337 338 340 341 345 348 346 344 344 344
298 304 309 311 311 311 312 314 314 315 316 316 316 316 316 315 314 315 317 319 319 321 321 324 326 326 328 330 330 330 330 330 330 331 331 331 330 331 331 331 331 330 330 330 329 329 329 329 329 331 332 334 335 336 336 338 339 341 343 345 346 346 346
290 295 304 310 301 300 308 313 314 315 317 315 314 314 314 314 313 314 315 318 320 321 321 321 324 325 326 329 330 329 329 329 329 331 332 333 334 334 335 335 335 335 334 331 330 329 329 329 329 330 332 334 335 337 337 337 337 339 340 339 338 338 339
294 304 309 311 308 308 310 312 314 315 317 317 313 312 312 313 313 313 313 315 318 319 320 320 321 324 326 327 329 328 328 328 328 329 330 331 332 333 334 334 334 334 334 335 332 331 329 329 330 332 333 334 335 337 337 336 335 335 336 336 334 334 333
302 304 305 312 309 306 310 314 314 314 316 316 313 314 315 313 313 314 314 314 316 316 317 319 321 321 324 326 326 325 326 327 328 328 329 330 330 332 332 332 332 332 332 332 332 331 332 331 331 332 334 335 336 338 337 337 336 335 334 333 331 331 332
300 307 311 313 312 312 313 314 315 316 317 315 312 313 314 315 315 316 314 314 316 317 317 318 320 321 323 325 325 325 326 327 328 329 329 329 329 328 329 330 330 331 331 332 331 331 332 332 332 333 333 335 336 337 336 336 335 334 333 332 331 330 330
Wind_Speed
14 15 8 6 10 7 4 9 12 13 8 5 5 3 2 1 3 8 2 5 7 7 5 6 6 5 10 12 15 15 16 17 14 13 12 15 17 18 18 19 19 21 18 17 18 18 17 17 16 17 18 18 20 18 17 19 19 17 18 19 19 17 17
10 6 14 9 12 7 7 8 10 4 4 5 5 5 1 3 6 6 0 7 5 1 10 3 5 6 11 9 13 15 17 16 14 15 12 14 17 19 22 22 21 20 20 21 20 19 19 19 20 20 20 19 18 17 18 19 18 18 18 18 18 17 17
8 3 6 4 7 9 12 9 6 8 1 7 2 3 9 4 5 3 4 4 7 10 10 3 4 7 10 10 12 12 14 14 15 14 14 14 15 14 15 17 16 16 18 19 19 20 20 20 20 20 20 19 16 16 17 18 19 20 20 17 17 15 16
5 6 9 10 9 6 2 7 7 3 6 4 6 8 3 4 7 1 6 1 11 7 7 8 6 9 11 11 9 12 16 17 16 15 15 15 14 15 17 18 18 19 20 22 22 22 21 20 18 18 18 16 17 18 17 17 17 16 15 15 15 16 17
6 6 5 11 11 12 9 4 6 1 2 2 4 1 8 6 3 4 2 8 3 5 8 11 11 10 12 12 13 13 15 16 17 16 15 15 15 15 17 18 18 20 20 20 21 20 20 19 18 17 16 18 19 17 18 19 19 19 18 18 17 17 15
6 2 8 14 15 15 12 12 12 9 7 4 6 9 0 3 6 5 5 14 3 5 3 9 12 11 11 12 13 12 11 13 13 15 17 15 13 16 17 18 18 19 19 19 19 19 17 16 16 16 15 16 16 16 18 18 18 17 19 18 17 16 15
3 6 11 14 17 16 14 13 12 12 5 5 5 7 7 1 5 4 2 2 14 6 8 10 10 10 10 11 10 11 12 13 13 13 14 13 14 15 16 16 15 16 16 18 19 20 19 19 18 18 17 17 17 19 19 17 18 20 20 20 18 15 15
5 4 4 6 5 3 8 8 7 10 12 12 11 9 5 6 2 4 3 8 6 3 5 11 11 9 9 5 5 12 11 10 11 12 11 11 10 11 12 10 11 13 14 14 13 15 16 16 15 17 17 17 17 17 18 17 20 21 19 17 16 16 16
3 6 5 5 3 2 3 6 9 9 9 12 8 2 3 4 9 9 7 16 4 3 2 5 4 5 5 9 9 8 10 9 7 9 10 10 11 11 9 9 10 10 10 12 15 16 16 16 16 16 17 17 17 17 17 18 20 20 18 16 16 17 17
10 10 11 8 7 5 2 3 7 12 15 13 6 14 4 10 5 8 7 8 5 6 4 4 6 6 6 9 7 2 5 7 7 6 9 9 9 10 10 9 8 12 15 15 14 14 14 15 16 16 16 17 17 17 19 19 19 17 18 16 17 16 16
3 2 3 3 2 4 3 3 5 9 11 14 15 8 8 14 5 10 9 6 3 3 5 6 7 6 9 10 7 7 7 8 8 6 6 8 10 12 13 13 13 11 10 14 16 16 16 16 16 16 16 17 17 16 18 18 17 17 17 16 16 17 17
1 3 7 13 6 6 7 9 10 7 13 14 16 15 16 8 7 15 9 8 8 7 4 6 7 7 6 7 8 8 7 7 7 7 5 5 6 7 6 6 8 13 16 16 16 16 16 16 16 16 16 17 18 18 18 17 17 16 14 16 16 16 16
7 7 10 12 9 5 7 11 11 12 12 14 21 20 7 12 14 19 8 6 6 5 7 9 10 10 9 11 12 10 7 5 5 5 7 8 9 8 6 8 10 13 14 14 16 16 17 17 16 17 16 15 14 14 14 14 15 17 17 16 17 18 17
8 9 9 9 8 4 6 10 12 14 14 18 19 15 13 14 11 7 9 9 13 10 8 9 9 9 8 4 2 0 2 6 7 5 6 8 7 8 11 12 12 13 15 15 15 16 16 17 17 17 16 15 16 17 17 16 17 17 15 17 17 17 18
7 11 7 5 7 9 11 10 10 12 15 16 16 12 12 9 11 10 7 5 11 7 4 7 9 7 4 3 4 8 7 6 5 6 8 8 10 11 10 9 11 12 14 13 12 12 14 16 18 18 18 18 18 18 17 17 18 17 17 17 17 17 19
7 5 5 12 14 15 13 12 12 11 10 13 10 10 7 8 10 7 12 14 10 7 7 6 9 9 8 8 9 9 8 7 7 8 9 10 11 11 10 10 10 11 12 12 13 15 17 18 18 17 17 16 16 17 17 17 17 15 16 16 18 19 19
4 10 5 11 14 11 10 16 12 9 8 9 6 7 8 15 12 12 16 15 6 11 9 8 10 10 12 9 7 9 10 8 8 10 10 11 10 10 10 8 10 12 14 15 15 16 16 17 17 18 19 17 18 18 17 18 14 15 17 18 18 17 16
3 13 11 8 4 6 12 2 1 2 9 11 12 14 11 8 12 15 10 11 10 9 8 12 12 13 10 13 12 6 7 6 7 9 9 10 10 9 8 8 10 12 11 11 14 17 18 18 20 20 17 19 20 19 18 14 14 16 17 17 16 17 15
3 9 7 3 7 14 3 15 9 6 8 7 15 17 16 13 13 13 9 7 7 11 13 16 17 16 14 5 5 3 7 6 7 8 9 10 12 12 10 8 10 11 12 12 11 11 12 14 12 10 11 13 10 8 9 14 16 16 17 17 17 16 16
1 3 1 4 10 4 11 6 5 9 4 10 9 10 17 17 13 12 13 10 9 9 11 11 12 11 4 2 3 3 2 7 7 7 10 12 8 10 11 9 8 8 11 13 14 15 14 12 11 12 14 12 12 13 13 15 15 15 16 16 17 15 15
3 5 6 9 11 16 9 4 5 7 4 5 3 6 10 4 2 8 9 10 9 7 6 9 4 1 2 1 2 2 1 1 4 7 7 7 9 9 9 7 9 5 4 5 7 4 2 6 9 11 10 10 12 12 13 15 15 16 15 16 16 16 17
7 6 6 5 2 3 4 3 1 2 1 3 4 5 10 5 8 6 9 11 11 11 6 3 4 5 6 5 4 3 1 1 1 0 3 4 4 5 7 5 4 4 5 5 3 3 4 6 10 8 10 12 12 13 14 13 13 14 15 16 16 15 16
5 5 6 4 3 7 4 3 5 4 3 2 2 3 9 3 9 10 4 8 12 13 10 6 6 8 7 8 7 6 2 1 1 3 2 2 3 4 5 5 4 3 3 4 4 5 7 9 6 8 11 13 14 13 13 14 15 16 17 18 16 16 17
8 8 8 9 3 6 1 4 6 9 2 1 4 3 8 3 15 13 10 10 11 11 9 12 12 11 8 8 9 3 2 1 0 2 3 4 6 6 4 5 3 2 1 3 4 4 5 5 5 5 7 9 11 12 14 14 14 16 16 16 14 15 15
10 12 7 5 5 4 2 5 7 7 5 3 7 12 3 12 16 14 11 14 12 9 6 11 10 10 5 5 3 2 1 1 3 3 3 3 4 6 9 9 7 8 9 7 6 6 4 1 4 6 8 9 10 10 9 11 15 16 13 10 11 12 11
11 8 10 9 5 5 1 4 0 5 2 4 9 3 9 13 15 16 14 15 11 4 9 10 7 6 4 6 4 6 5 5 2 3 4 6 7 7 8 10 10 9 10 10 10 11 9 9 2 5 6 8 8 7 9 13 17 15 12 13 12 12 12
8 7 7 6 9 2 1 5 1 6 2 4 5 11 12 7 12 14 14 9 6 0 3 0 4 9 7 8 7 6 5 4 6 8 10 12 11 10 10 12 11 10 11 12 12 10 9 8 8 4 3 7 6 6 9 13 6 2 4 6 8 9 11
9 9 11 8 5 5 6 1 3 2 4 4 7 6 11 9 8 10 11 8 6 6 2 2 5 5 8 8 5 6 6 6 6 9 10 10 10 10 10 9 7 8 10 10 10 10 9 10 9 7 5 2 5 7 8 1 2 2 4 5 5 7 8
5 5 6 2 6 5 2 1 3 5 1 4 7 7 5 9 9 10 8 9 9 7 3 2 3 7 8 8 6 8 6 8 10 11 11 10 10 9 10 9 7 8 10 10 10 11 10 10 11 10 8 4 1 2 5 5 1 3 5 5 7 7 8
10 13 5 7 6 4 5 3 4 7 5 3 6 6 6 6 7 8 8 10 7 5 4 1 6 7 6 9 9 10 10 11 10 9 10 11 8 7 7 8 7 6 7 9 11 12 11 11 9 9 9 9 9 6 7 6 4 3 3 6 7 9 9
11 7 5 4 6 5 5 7 6 9 7 3 5 6 5 6 8 10 9 9 6 7 7 7 10 10 9 10 10 9 10 11 11 11 11 11 12 13 14 11 9 9 9 9 10 10 11 9 8 8 8 8 6 5 6 6 7 5 3 5 7 7 8
10 8 1 5 4 3 3 3 5 8 7 6 7 5 6 6 8 7 9 9 8 7 8 6 9 10 10 10 8 8 8 9 8 9 9 9 10 10 9 11 12 12 13 11 9 9 8 7 6 6 6 7 7 6 6 6 6 6 5 3 4 5 5
11 16 8 5 4 1 4 6 8 9 6 1 6 7 10 10 8 10 9 9 8 10 9 8 8 10 8 8 9 11 10 9 9 9 9 8 8 7 9 8 9 9 8 10 10 10 9 7 6 6 7 6 5 7 6 6 6 5 5 3 2 2 2
9 10 8 7 8 4 1 6 8 9 5 4 3 7 8 10 7 7 10 8 8 10 9 8 6 8 8 7 7 8 7 8 8 8 9 9 9 9 8 7 9 9 9 8 8 8 8 8 8 8 8 7 6 6 5 5 5 6 4 4 5 5 4
10 8 8 7 1 4 3 7 6 10 6 4 4 8 5 6 9 8 8 9 6 9 11 11 10 8 5 5 7 10 10 9 8 8 10 10 9 9 8 9 8 8 7 8 8 8 6 6 8 8 8 8 8 8 7 7 6 6 4 5 4 3 3
17 20 20 11 4 6 6 6 6 7 6 7 8 7 6 5 9 11 10 9 6 6 11 13 12 12 10 6 4 10 9 9 10 10 10 11 10 10 9 10 9 9 10 10 9 8 7 7 7 8 8 9 9 8 7 7 6 6 6 5 5 4 4
14 13 9 9 3 3 6 8 7 5 3 7 9 8 8 8 10 11 8 8 12 9 13 12 11 8 8 5 3 8 9 9 9 11 11 11 12 11 10 11 10 9 8 7 7 7 8 9 8 8 9 9 8 7 6 6 6 6 6 6 5 5 5
Wind_Direction
178 192 149 189 148 194 210 125 202 214 90 140 248 284 212 94 1 256 199 301 297 295 308 236 226 220 222 206 212 215 225 228 225 223 210 202 203 204 201 205 206 206 204 204 205 204 203 202 200 200 200 196 198 197 196 198 201 197 196 198 198 198 200
240 192 171 173 184 132 121 190 213 81 102 140 162 228 354 212 227 266 185 222 286 316 266 285 181 195 220 210 216 215 219 225 225 226 215 203 203 204 204 206 205 202 200 201 203 204 202 200 199 200 202 199 198 196 197 198 198 197 199 198 199 199 200
192 114 140 173 213 156 177 204 150 149 211 189 274 132 242 218 245 270 271 243 241 199 239 347 202 202 232 224 216 214 222 227 228 227 223 211 210 207 206 211 207 204 203 204 204 205 205 203 200 200 201 196 195 196 198 198 199 201 199 197 199 200 200
165 155 151 201 204 267 270 82 168 176 125 176 157 197 159 149 243 127 288 213 250 197 209 181 219 221 223 223 221 217 216 218 219 221 222 213 205 202 206 207 204 203 203 202 202 203 203 202 202 203 199 194 195 197 196 199 203 203 201 200 199 201 201
118 180 193 198 190 191 213 199 196 187 213 245 148 151 185 187 193 199 241 276 267 229 199 178 207 215 220 214 217 218 219 219 216 215 218 218 207 206 208 207 203 203 204 203 204 205 205 203 202 199 193 192 196 194 195 197 197 198 200 202 199 203 198
206 235 201 196 196 192 195 191 209 195 163 150 166 253 352 165 188 222 141 250 267 269 180 190 197 214 216 220 215 223 226 228 222 219 219 217 210 211 211 209 203 203 203 202 204 204 204 201 201 197 195 196 195 193 198 198 198 199 201 201 201 201 197
205 205 212 210 201 192 196 182 210 189 176 121 159 223 232 157 242 106 175 256 264 227 193 201 198 209 216 221 204 221 224 223 224 227 228 223 217 214 213 210 205 202 202 201 199 200 199 198 198 196 193 194 194 195 196 196 197 202 200 202 200 197 197
293 297 320 323 331 230 221 223 202 168 195 195 214 219 180 177 231 221 257 243 261 278 198 200 206 210 214 249 221 217 226 224 221 225 228 226 225 228 223 211 206 202 203 200 198 202 203 201 198 195 194 196 196 196 195 194 200 203 201 201 196 196 199
221 270 336 316 344 141 215 201 213 200 194 201 207 114 99 202 202 183 161 243 245 272 307 266 290 263 247 248 233 214 238 245 213 213 221 224 224 226 219 207 204 194 193 194 201 202 200 199 197 195 195 195 195 196 193 197 204 201 200 197 195 197 198
206 206 211 219 227 246 265 228 213 208 200 195 170 225 157 220 219 178 206 249 250 272 314 266 242 260 273 266 261 288 233 254 253 228 224 225 222 223 213 206 186 187 196 199 199 200 200 198 196 195 196 196 196 195 196 199 201 195 199 194 197 197 196
252 354 274 215 0 316 263 321 206 219 214 203 207 209 205 219 176 208 227 195 239 271 218 216 234 224 225 253 267 247 246 246 253 247 230 215 213 215 209 203 199 193 194 199 199 198 198 195 195 195 195 196 197 196 199 199 199 197 196 193 195 196 196
230 304 302 290 282 261 267 273 272 237 204 207 212 206 225 122 143 242 219 201 201 242 261 233 236 241 243 251 264 268 253 256 252 256 261 278 265 251 233 211 194 192 200 201 198 196 194 195 195 197 197 196 195 195 198 197 196 195 194 194 195 197 196
322 289 280 284 291 231 245 256 254 253 237 209 214 220 195 162 210 233 226 178 189 235 228 229 220 203 205 219 230 230 230 260 269 253 240 228 227 237 230 220 205 202 203 201 200 195 195 192 192 195 196 197 198 200 201 196 194 197 192 191 194 196 196
313 296 283 282 271 283 275 257 257 254 246 237 227 220 210 202 228 234 231 179 200 203 222 228 238 225 215 229 202 76 252 255 249 255 280 267 243 223 221 218 209 207 208 204 202 196 193 190 192 192 194 195 196 196 196 193 195 198 187 194 195 196 199
312 300 299 284 314 299 289 282 267 258 255 251 243 235 227 212 241 233 245 180 226 250 244 241 256 268 329 333 261 239 231 248 254 243 244 248 250 241 228 224 216 212 212 207 201 198 198 194 193 191 193 196 196 197 196 193 196 193 187 194 194 196 202
311 294 334 321 319 311 283 264 258 258 249 251 247 236 222 206 218 211 237 243 232 253 257 263 272 278 279 252 245 247 247 242 245 236 240 240 243 247 240 223 215 214 214 207 196 197 198 199 196 194 194 195 192 197 195 196 196 187 190 194 196 200 203
249 282 306 326 313 321 303 262 263 251 236 244 257 251 212 214 207 214 220 231 209 212 203 216 252 251 253 256 250 252 248 233 230 231 229 230 237 242 247 232 215 214 210 205 200 200 200 198 197 199 194 189 192 196 193 198 184 182 192 196 199 202 200
272 293 316 312 326 259 242 103 358 241 241 221 224 239 229 223 194 230 225 224 200 201 179 200 229 235 233 228 235 206 215 216 236 251 259 255 248 254 256 238 220 219 215 210 206 202 198 199 199 199 192 192 197 195 193 179 178 189 191 196 198 201 196
281 296 319 343 234 241 356 332 357 338 292 264 225 228 228 222 221 237 248 240 215 203 197 200 215 226 231 249 263 258 221 202 212 232 252 261 259 254 254 248 230 217 211 212 211 208 208 204 201 190 196 204 197 181 174 181 189 189 193 194 196 197 196
266 329 262 227 234 262 320 313 341 337 62 24 6 280 243 228 213 206 227 231 228 210 209 218 223 232 245 287 272 236 209 179 197 217 241 255 262 263 254 248 247 223 212 208 205 208 205 193 186 188 196 189 180 186 183 187 189 192 193 194 198 194 195
177 212 239 250 309 319 333 360 6 33 31 345 6 277 278 289 236 188 212 230 247 259 233 223 224 111 107 205 267 245 210 190 209 214 250 264 268 263 268 245 246 245 253 244 240 247 199 183 179 192 184 173 183 180 183 191 190 194 193 197 197 194 196
170 223 277 307 338 257 282 185 68 207 191 229 186 154 287 278 252 214 202 212 224 234 241 186 167 140 133 197 241 256 239 254 355 287 251 284 292 291 277 277 257 246 239 211 191 186 191 194 195 181 168 176 176 182 190 187 186 192 196 202 199 195 197
171 199 228 218 203 240 201 260 274 272 256 192 155 105 268 298 357 352 286 234 216 205 197 168 148 136 169 218 225 237 272 301 127 71 343 345 1 357 354 351 330 261 216 199 186 157 168 195 200 181 176 174 177 186 187 188 191 195 200 202 194 194 199
192 192 217 238 203 250 265 298 316 318 317 135 125 212 259 320 348 333 333 287 255 227 195 156 168 166 192 211 225 227 234 213 281 114 59 33 26 23 359 1 334 309 295 115 118 147 158 161 144 175 176 175 186 187 190 190 194 203 208 205 196 197 198
208 203 243 284 280 279 276 316 316 321 346 99 165 218 249 326 321 314 307 292 269 262 215 164 177 217 200 170 150 64 16 171 24 34 64 66 56 34 20 13 16 48 43 58 61 49 25 353 142 159 163 177 191 195 191 194 206 209 204 191 192 202 194
220 207 216 234 257 236 246 278 348 339 88 204 222 304 317 302 309 306 295 284 274 223 230 215 182 152 145 109 96 83 67 72 1 19 74 90 65 48 41 32 39 54 57 53 43 28 17 1 356 157 160 180 192 183 193 207 211 206 195 192 191 186 185
223 212 213 212 231 262 205 255 60 34 84 256 277 306 308 317 303 307 306 289 318 307 245 0 128 133 117 106 96 83 72 57 40 35 43 49 48 35 33 38 36 52 58 53 49 41 23 20 16 349 175 174 181 190 208 222 208 165 182 188 193 195 196
206 199 211 213 186 178 247 206 131 196 183 257 296 308 299 324 320 318 312 311 338 16 352 212 117 111 110 94 106 98 69 57 55 51 52 52 51 49 46 51 51 62 73 66 57 45 40 38 32 30 31 197 194 197 225 21 152 155 155 172 177 187 198
256 239 211 195 124 141 223 146 142 148 203 295 295 299 298 317 326 317 311 319 330 29 28 327 70 74 65 83 79 91 80 73 65 61 55 51 51 49 49 39 41 59 70 74 72 55 38 32 36 34 31 43 351 309 349 343 291 181 166 159 169 186 194
272 248 242 143 127 154 143 157 120 106 58 339 318 320 339 324 318 327 316 314 316 12 22 265 67 70 80 78 67 64 58 57 51 49 50 48 60 80 89 56 32 43 59 66 58 55 40 33 34 35 34 40 43 2 339 344 337 320 195 176 183 192 192
280 244 154 138 143 174 155 134 127 91 82 5 333 321 325 324 339 336 343 324 337 44 68 80 88 78 65 72 68 63 63 57 52 50 50 39 32 25 24 17 30 47 54 52 48 52 53 35 33 35 42 44 38 8 2 349 344 329 268 207 204 201 201
275 281 287 131 142 175 186 149 90 64 48 12 328 322 330 351 346 348 351 341 10 42 59 51 83 78 77 78 75 73 69 73 67 65 59 52 41 31 30 21 21 25 26 27 27 30 39 25 30 37 39 36 23 18 15 12 360 357 345 288 242 235 224
298 290 258 177 156 104 91 83 83 95 89 46 308 4 357 346 358 0 356 5 5 37 47 33 61 77 66 75 86 88 82 72 68 63 67 60 62 54 48 40 44 46 32 26 15 13 12 11 22 26 31 34 29 31 17 7 11 25 19 347 346 339 300
264 252 234 189 172 218 200 101 100 85 86 81 15 29 22 327 327 33 356 354 21 42 41 39 32 85 96 96 94 84 72 72 72 73 70 67 64 60 60 64 61 60 55 49 37 26 5 359 8 16 17 17 18 27 26 23 23 43 33 45 54 44 34
265 279 301 284 239 106 159 139 123 114 109 95 64 69 49 343 327 20 26 324 12 45 39 30 31 10 44 87 97 89 85 78 80 77 74 71 64 58 54 59 55 55 52 49 51 41 20 4 14 16 14 11 12 15 20 27 30 35 49 70 71 61 55
274 280 277 270 258 171 168 136 119 110 129 130 93 56 39 22 360 5 18 328 298 64 50 38 23 359 333 329 61 89 82 78 78 74 71 71 67 67 57 55 52 46 41 39 41 38 30 28 27 20 16 11 10 14 25 32 39 47 48 65 66 53 48
259 262 299 302 266 134 119 120 107 96 117 103 74 40 14 16 26 15 6 345 323 19 71 49 22 341 299 304 31 71 77 68 68 74 73 69 64 59 55 52 43 40 38 38 37 36 36 36 31 26 26 15 8 16 21 28 37 55 60 67 67 59 53